Weather History for PHNG - April, 2014

Change the Weather History Date:

Tuesday, April 22, 2014

  Actual Average Record
Temperature  
Mean Temperature 74 °F -  
Max Temperature 80 °F 76 °F 82 °F (1997)
Min Temperature 69 °F 68 °F 66 °F (2008)
Cooling Degree Days 10    
Growing Degree Days 24 (Base 50)    
Moisture  
Dew Point 64 °F    
Average Humidity 68    
Maximum Humidity 88    
Minimum Humidity 54    
Precipitation  
Precipitation 0.00 in - - ()
Sea Level Pressure  
Sea Level Pressure 30.11 in    
Wind  
Wind Speed 11 mph (ENE)    
Max Wind Speed 15 mph    
Max Gust Speed 28 mph    
Visibility 7 miles    
Events      
Averages and records for this station are not official NWS values.
T = Trace of Precipitation, MM = Missing Value Source: NWS Daily Summary

Daily Weather History Graph

Daily Weather History Graph

Search for Another Location

Airport or City:

Trip Planner

Search our weather history database for the weather conditions in past years. The results will help you decide how hot, cold, wet, or windy it might be!

Date:

Astronomy

Apr. 22, 2014 Rise Set
Actual Time 6:06 AM HST 6:53 PM HST
Civil Twilight 5:43 AM HST 7:16 PM HST
Nautical Twilight 5:16 AM HST 7:43 PM HST
Astronomical Twilight 4:48 AM HST 8:10 PM HST
Moon 1:13 AM HST (4/22) 12:55 PM HST (4/22)
Length of Visible Light 13h 32m
Length of Day
12h 46m
Last Quarter, 43% of the Moon is Illuminated
Apr 22
Last Quarter
Apr 28
New
May 6
First Quarter
May 14
Full
May 21
Last Quarter

Hourly Weather History & Observations

Time (HST) Temp. Heat Index Dew Point Humidity Pressure Visibility Wind Dir Wind Speed Gust Speed Precip Events Conditions
12:34 AM 69.8 °F - 66.2 °F 88% 30.14 in 6.2 mi East 10.4 mph - N/A   Scattered Clouds
12:57 AM 71.6 °F - 66.0 °F 82% 30.12 in 7.0 mi East 11.5 mph 18.4 mph N/A   Mostly Cloudy
1:05 AM 71.6 °F - 64.4 °F 78% 30.13 in 6.0 mi ENE 9.2 mph 17.3 mph N/A   Haze
1:12 AM 71.6 °F - 64.4 °F 78% 30.13 in 6.2 mi East 11.5 mph 20.7 mph N/A   Mostly Cloudy
1:57 AM 73.0 °F - 64.9 °F 76% 30.10 in 8.0 mi East 8.1 mph 18.4 mph N/A   Mostly Cloudy
2:57 AM 72.7 °F - 64.0 °F 74% 30.09 in 5.0 mi East 10.4 mph 23.0 mph N/A   Haze
3:57 AM 72.7 °F - 64.9 °F 77% 30.08 in 7.0 mi ENE 11.5 mph 19.6 mph N/A   Overcast
4:12 AM - - - N/A% 30.10 in 6.2 mi East 8.1 mph 16.1 mph N/A   Overcast
4:57 AM 72.7 °F - 64.0 °F 74% 30.09 in 8.0 mi East 13.8 mph 23.0 mph N/A   Scattered Clouds
5:57 AM 71.8 °F - 64.0 °F 77% 30.10 in 8.0 mi East 13.8 mph 21.9 mph N/A   Scattered Clouds
6:57 AM 73.4 °F - 64.0 °F 72% 30.11 in 7.0 mi ENE 11.5 mph 21.9 mph N/A   Partly Cloudy
7:57 AM 76.5 °F - 64.0 °F 65% 30.12 in 7.0 mi East 9.2 mph 20.7 mph N/A   Partly Cloudy
8:49 AM 77.0 °F - 64.4 °F 65% 30.15 in 6.2 mi ENE 13.8 mph 21.9 mph N/A   Mostly Cloudy
8:57 AM 77.0 °F - 64.0 °F 64% 30.14 in 7.0 mi ENE 12.7 mph 23.0 mph N/A   Mostly Cloudy
9:22 AM 77.0 °F - 64.4 °F 65% 30.15 in 6.2 mi ENE 15.0 mph 23.0 mph N/A   Mostly Cloudy
9:57 AM 77.0 °F - 64.0 °F 64% 30.14 in 7.0 mi ENE 13.8 mph 20.7 mph N/A   Partly Cloudy
10:57 AM 79.0 °F - 64.9 °F 62% 30.14 in 7.0 mi East 13.8 mph 24.2 mph N/A   Scattered Clouds
11:07 AM 78.8 °F - 64.4 °F 61% 30.14 in 6.2 mi ENE 10.4 mph 23.0 mph N/A   Mostly Cloudy
11:20 AM 78.8 °F - 64.4 °F 61% 30.14 in 6.2 mi East 15.0 mph 23.0 mph N/A   Scattered Clouds
11:57 AM 79.0 °F - 64.0 °F 60% 30.12 in 7.0 mi East 11.5 mph 23.0 mph N/A   Scattered Clouds
12:57 PM 80.8 °F 82.4 °F 64.0 °F 57% 30.10 in 7.0 mi ENE 15.0 mph 23.0 mph N/A   Mostly Cloudy
1:34 PM 80.6 °F 81.8 °F 62.6 °F 54% 30.10 in 6.2 mi ENE 12.7 mph 27.6 mph N/A   Mostly Cloudy
1:57 PM 80.8 °F 82.0 °F 63.0 °F 54% 30.07 in 7.0 mi ENE 12.7 mph 19.6 mph N/A   Mostly Cloudy
2:04 PM 78.8 °F - 64.4 °F 61% 30.08 in 6.2 mi ENE 11.5 mph 23.0 mph N/A   Mostly Cloudy
2:57 PM 78.8 °F - 64.9 °F 62% 30.06 in 7.0 mi ENE 6.9 mph 21.9 mph N/A   Partly Cloudy
3:57 PM 78.8 °F - 64.0 °F 60% 30.05 in 7.0 mi East 12.7 mph - N/A   Scattered Clouds
4:57 PM 77.0 °F - 62.1 °F 60% 30.05 in 7.0 mi ENE 10.4 mph - N/A   Mostly Cloudy
5:57 PM 77.0 °F - 63.0 °F 62% 30.06 in 7.0 mi East 12.7 mph 20.7 mph N/A   Partly Cloudy
6:57 PM 75.2 °F - 62.1 °F 64% 30.07 in 7.0 mi ENE 8.1 mph - N/A   Mostly Cloudy
7:05 PM 75.2 °F - 62.6 °F 65% 30.09 in 6.2 mi ENE 6.9 mph - N/A   Mostly Cloudy
7:57 PM 75.2 °F - 62.1 °F 64% 30.09 in 7.0 mi East 9.2 mph - N/A   Mostly Cloudy
8:04 PM - - - N/A% 30.10 in 6.0 mi ENE 8.1 mph - N/A   Haze
8:57 PM 71.6 °F - 62.1 °F 72% 30.10 in 7.0 mi East 11.5 mph 24.2 mph N/A   Mostly Cloudy
9:20 PM 71.6 °F - 62.6 °F 73% 30.12 in 6.2 mi East 12.7 mph - N/A   Mostly Cloudy
9:32 PM 71.6 °F - 62.6 °F 73% 30.12 in 6.2 mi ENE 10.4 mph 20.7 mph N/A   Mostly Cloudy
9:57 PM 71.6 °F - 62.1 °F 72% 30.11 in 7.0 mi ENE 8.1 mph - N/A   Partly Cloudy
10:57 PM 71.6 °F - 63.0 °F 74% 30.12 in 7.0 mi East 9.2 mph 19.6 mph N/A   Mostly Cloudy
11:54 PM 71.6 °F - 62.6 °F 73% 30.12 in 6.2 mi East 11.5 mph 18.4 mph N/A   Mostly Cloudy
11:57 PM 71.6 °F - 62.1 °F 72% 30.11 in 7.0 mi ENE 12.7 mph 18.4 mph N/A   Mostly Cloudy